Overview Statistics Trail Chart Weather Telemetry Raw packets
 

This is the latest recevied weather packets stored in our database for station/object W0WFX-2. If no packets are shown the sender has not sent any weather packets the latest 10 day(s).

<< 40 41 42 43 44 45 46 >>
Time Temp. Humidity Pressure Rain* Wind** Luminosity Snow
1788367257 35.56° C 47% 1015.8 hPa 0 mm - 647 W/m² -
1788366953 35° C 45% 1015.7 hPa 0 mm - 637 W/m² -
1788366651 35.56° C 45% 1015.9 hPa 0 mm - 630 W/m² -
1788366345 35.56° C 44% 1015.9 hPa 0 mm - 621 W/m² -
1788366040 36.11° C 43% 1016 hPa 0 mm - 614 W/m² -
1788365740 35.56° C 45% 1016 hPa 0 mm - 601 W/m² -
1788365436 35° C 46% 1016 hPa 0 mm - 590 W/m² -
1788365132 35° C 45% 1016 hPa 0 mm - 579 W/m² -
1788364828 34.44° C 47% 1015.8 hPa 0 mm - 565 W/m² -
1788364520 34.44° C 47% 1015.9 hPa 0 mm - 559 W/m² -
1788364219 34.44° C 48% 1015.9 hPa 0 mm - 544 W/m² -
1788363915 34.44° C 47% 1016 hPa 0 mm - 532 W/m² -
1788363609 33.89° C 48% 1016 hPa 0 mm - 521 W/m² -
1788363308 33.89° C 49% 1016.1 hPa 0 mm - 508 W/m² -
1788363003 33.33° C 48% 1015.9 hPa 0 mm - 497 W/m² -
1788362700 33.33° C 48% 1015.9 hPa 0 mm - 483 W/m² -
1788362395 33.33° C 49% 1015.8 hPa 0 mm - 469 W/m² -
1788362091 33.33° C 50% 1015.8 hPa 0 mm - 449 W/m² -
1788361790 32.78° C 50% 1015.9 hPa 0 mm - 441 W/m² -
1788361486 32.78° C 51% 1015.9 hPa 0 mm - 506 W/m² -
1788361186 32.22° C 51% 1016 hPa 0 mm - 409 W/m² -
1788360882 31.67° C 52% 1015.9 hPa 0 mm - 373 W/m² -
1788360582 31.11° C 55% 1015.7 hPa 0 mm - 381 W/m² -
1788360278 30.56° C 56% 1015.9 hPa 0 mm - 366 W/m² -
1788359977 30.56° C 58% 1015.8 hPa 0 mm - 103 W/m² -

* Rain latest hour (hover to see other rain measurements)
** Current wind speed in m/s (hover to see current wind gust speed)